• In Hungary
  • List of Countries
  • For 7 days
  • Water Temperature
  • Satellite Maps
  • Weather Map
  • News
  • Weather Widgets
  • user-avatar
    Login

    Hourly Weather Idzhewan

    Today, 22 August, Tuesday

    Time Temperature Precipitation Wind Pressure Humidity
    00:00 +22°C° 0 mm 1 mps 692 mmHg 62%
    01:00 +22°C° 0 mm 1 mps 692 mmHg 63%
    02:00 +22°C° 0 mm 1 mps 691 mmHg 65%
    03:00 +21°C° 0 mm 1 mps 691 mmHg 66%
    04:00 +21°C° 0 mm 1 mps 692 mmHg 66%
    05:00 +21°C° 0 mm 1 mps 692 mmHg 66%
    06:00 +21°C° 0 mm 1 mps 692 mmHg 66%
    07:00 +24°C° 0 mm 1 mps 692 mmHg 57%
    08:00 +26°C° 0 mm 1 mps 692 mmHg 48%
    09:00 +29°C° 0 mm 1 mps 692 mmHg 40%
    10:00 +30°C° 0 mm 2 mps 692 mmHg 37%
    11:00 +32°C° 0 mm 2 mps 692 mmHg 33%
    12:00 +34°C° 0 mm 2 mps 692 mmHg 30%
    13:00 +35°C° 0 mm 3 mps 691 mmHg 30%
    14:00 +35°C° 0 mm 3 mps 691 mmHg 29%
    15:00 +36°C° 0 mm 3 mps 691 mmHg 29%
    16:00 +34°C° 0 mm 3 mps 690 mmHg 32%
    17:00 +33°C° 0 mm 3 mps 690 mmHg 36%
    18:00 +31°C° 0 mm 3 mps 690 mmHg 39%
    19:00 +29°C° 0 mm 2 mps 690 mmHg 44%
    20:00 +27°C° 0 mm 2 mps 691 mmHg 48%
    21:00 +25°C° 0 mm 2 mps 691 mmHg 52%
    22:00 +24°C° 0 mm 1 mps 691 mmHg 53%
    23:00 +23°C° 0 mm 1 mps 691 mmHg 54%

    Tomorrow, 23 August, Wednesday

    Time Temperature Precipitation Wind Pressure Humidity
    00:00 +23°C° 0 mm 1 mps 691 mmHg 55%
    01:00 +22°C° 0 mm 1 mps 691 mmHg 56%
    02:00 +22°C° 0 mm 1 mps 691 mmHg 57%
    03:00 +21°C° 0 mm 1 mps 691 mmHg 58%
    04:00 +21°C° 0 mm 1 mps 691 mmHg 58%
    05:00 +21°C° 0 mm 1 mps 691 mmHg 59%
    06:00 +21°C° 0 mm 1 mps 692 mmHg 59%
    07:00 +24°C° 0 mm 2 mps 692 mmHg 52%
    08:00 +26°C° 0 mm 2 mps 692 mmHg 45%
    09:00 +28°C° 0 mm 2 mps 693 mmHg 38%
    10:00 +30°C° 0 mm 3 mps 692 mmHg 35%
    11:00 +31°C° 0 mm 3 mps 692 mmHg 32%
    12:00 +34°C° 0 mm 4 mps 692 mmHg 29%
    13:00 +34°C° 0 mm 4 mps 692 mmHg 28%
    14:00 +34°C° 0 mm 4 mps 692 mmHg 27%
    15:00 +35°C° 0 mm 4 mps 692 mmHg 26%
    16:00 +33°C° 0 mm 4 mps 692 mmHg 29%
    17:00 +31°C° 0 mm 3 mps 692 mmHg 32%
    18:00 +30°C° 0 mm 3 mps 692 mmHg 35%
    19:00 +28°C° 0 mm 3 mps 693 mmHg 38%
    20:00 +26°C° 0 mm 2 mps 693 mmHg 41%
    21:00 +24°C° 0 mm 2 mps 694 mmHg 44%
    22:00 +23°C° 0 mm 2 mps 694 mmHg 46%
    23:00 +23°C° 0 mm 2 mps 694 mmHg 48%

    Day after tomorrow, 24 August, Thursday

    Time Temperature Precipitation Wind Pressure Humidity
    00:00 +21°C° 0 mm 2 mps 694 mmHg 50%
    01:00 +20°C° 0 mm 2 mps 694 mmHg 53%
    02:00 +20°C° 0 mm 2 mps 694 mmHg 55%
    03:00 +20°C° 0 mm 2 mps 694 mmHg 58%
    04:00 +20°C° 0 mm 2 mps 694 mmHg 59%
    05:00 +20°C° 0 mm 2 mps 694 mmHg 60%
    06:00 +20°C° 0 mm 2 mps 694 mmHg 62%
    07:00 +23°C° 0 mm 2 mps 695 mmHg 56%
    08:00 +25°C° 0 mm 2 mps 695 mmHg 49%
    09:00 +28°C° 0 mm 2 mps 695 mmHg 43%
    10:00 +29°C° 0 mm 3 mps 695 mmHg 39%
    11:00 +31°C° 0 mm 3 mps 695 mmHg 35%
    12:00 +33°C° 0 mm 4 mps 695 mmHg 31%
    13:00 +33°C° 0 mm 4 mps 695 mmHg 30%
    14:00 +34°C° 0 mm 4 mps 694 mmHg 29%
    15:00 +34°C° 0 mm 5 mps 694 mmHg 28%
    16:00 +33°C° 0 mm 4 mps 694 mmHg 29%
    17:00 +31°C° 0 mm 3 mps 694 mmHg 31%
    18:00 +30°C° 0 mm 3 mps 694 mmHg 32%
    19:00 +28°C° 0 mm 2 mps 695 mmHg 35%
    20:00 +26°C° 0 mm 2 mps 695 mmHg 37%
    21:00 +24°C° 0 mm 2 mps 695 mmHg 39%
    22:00 +23°C° 0 mm 2 mps 695 mmHg 41%
    23:00 +21°C° 0 mm 2 mps 695 mmHg 42%

    25 August, Friday

    Time Temperature Precipitation Wind Pressure Humidity
    00:00 +20°C° 0 mm 2 mps 696 mmHg 44%
    01:00 +20°C° 0 mm 2 mps 695 mmHg 45%
    02:00 +19°C° 0 mm 2 mps 695 mmHg 47%
    03:00 +20°C° 0 mm 1 mps 695 mmHg 49%
    04:00 +19°C° 0 mm 2 mps 695 mmHg 50%
    05:00 +19°C° 0 mm 2 mps 696 mmHg 52%
    06:00 +18°C° 0 mm 2 mps 696 mmHg 53%
    07:00 +21°C° 0 mm 2 mps 696 mmHg 47%
    08:00 +24°C° 0 mm 2 mps 696 mmHg 41%
    09:00 +27°C° 0 mm 2 mps 696 mmHg 35%
    10:00 +28°C° 0 mm 2 mps 696 mmHg 32%
    11:00 +30°C° 0 mm 3 mps 696 mmHg 29%
    12:00 +31°C° 0 mm 3 mps 695 mmHg 26%
    13:00 +31°C° 0 mm 3 mps 695 mmHg 25%
    14:00 +33°C° 0 mm 4 mps 695 mmHg 24%
    15:00 +33°C° 0 mm 4 mps 695 mmHg 24%
    16:00 +31°C° 0 mm 3 mps 695 mmHg 26%
    17:00 +30°C° 0 mm 3 mps 695 mmHg 28%
    18:00 +29°C° 0 mm 2 mps 694 mmHg 30%
    19:00 +27°C° 0 mm 2 mps 695 mmHg 31%
    20:00 +25°C° 0 mm 2 mps 695 mmHg 32%
    21:00 +23°C° 0 mm 2 mps 695 mmHg 34%
    22:00 +21°C° 0 mm 2 mps 695 mmHg 34%
    23:00 +21°C° 0 mm 2 mps 695 mmHg 35%

    26 August, Saturday

    Time Temperature Precipitation Wind Pressure Humidity
    00:00 +20°C° 0 mm 2 mps 695 mmHg 35%
    01:00 +19°C° 0 mm 2 mps 695 mmHg 36%
    02:00 +19°C° 0 mm 2 mps 695 mmHg 37%
    03:00 +18°C° 0 mm 2 mps 695 mmHg 39%
    04:00 +18°C° 0 mm 2 mps 695 mmHg 40%
    05:00 +18°C° 0 mm 2 mps 695 mmHg 41%
    06:00 +18°C° 0 mm 2 mps 695 mmHg 42%
    07:00 +20°C° 0 mm 2 mps 695 mmHg 38%
    08:00 +24°C° 0 mm 2 mps 695 mmHg 34%
    09:00 +26°C° 0 mm 2 mps 696 mmHg 30%
    10:00 +28°C° 0 mm 2 mps 695 mmHg 28%
    11:00 +29°C° 0 mm 3 mps 695 mmHg 26%
    12:00 +30°C° 0 mm 3 mps 695 mmHg 24%
    13:00 +32°C° 0 mm 4 mps 694 mmHg 23%
    14:00 +32°C° 0 mm 4 mps 694 mmHg 23%
    15:00 +33°C° 0 mm 4 mps 694 mmHg 23%
    16:00 +31°C° 0 mm 3 mps 694 mmHg 26%
    17:00 +29°C° 0 mm 3 mps 693 mmHg 28%
    18:00 +28°C° 0 mm 2 mps 693 mmHg 31%
    19:00 +26°C° 0 mm 2 mps 694 mmHg 34%
    20:00 +24°C° 0 mm 2 mps 694 mmHg 36%
    21:00 +21°C° 0 mm 2 mps 694 mmHg 39%
    22:00 +21°C° 0 mm 2 mps 694 mmHg 40%
    23:00 +20°C° 0 mm 2 mps 694 mmHg 41%

    27 August, Sunday

    Time Temperature Precipitation Wind Pressure Humidity
    00:00 +19°C° 0 mm 2 mps 694 mmHg 42%
    01:00 +19°C° 0 mm 2 mps 694 mmHg 44%
    02:00 +18°C° 0 mm 2 mps 694 mmHg 45%
    03:00 +18°C° 0 mm 2 mps 694 mmHg 47%
    04:00 +18°C° 0 mm 2 mps 694 mmHg 47%
    05:00 +18°C° 0 mm 2 mps 694 mmHg 47%
    06:00 +18°C° 0 mm 2 mps 694 mmHg 47%
    07:00 +20°C° 0 mm 2 mps 694 mmHg 41%
    08:00 +24°C° 0 mm 2 mps 694 mmHg 35%
    09:00 +26°C° 0 mm 2 mps 694 mmHg 30%
    10:00 +27°C° 0 mm 2 mps 694 mmHg 28%
    11:00 +29°C° 0 mm 3 mps 694 mmHg 26%
    12:00 +30°C° 0 mm 3 mps 693 mmHg 24%
    13:00 +31°C° 0 mm 3 mps 693 mmHg 24%
    14:00 +32°C° 0 mm 4 mps 693 mmHg 24%
    15:00 +33°C° 0 mm 4 mps 693 mmHg 23%
    16:00 +30°C° 0 mm 3 mps 692 mmHg 26%
    17:00 +29°C° 0 mm 3 mps 692 mmHg 30%
    18:00 +28°C° 0 mm 2 mps 692 mmHg 33%
    19:00 +26°C° 0 mm 2 mps 693 mmHg 36%
    20:00 +24°C° 0 mm 2 mps 693 mmHg 39%
    21:00 +22°C° 0 mm 1 mps 693 mmHg 42%
    22:00 +21°C° 0 mm 1 mps 693 mmHg 44%
    23:00 +20°C° 0 mm 2 mps 693 mmHg 45%
    Show more